Mehtap Bayraktar — TCPB — position and weather

sailwx.info

Track history (hours):
 
Tides and Currents Weather Stations Pressure Air Temp Water Temp Dewpoint Dewpoint Depression Visibility Wind Speed Wind Dir Waves Ship Positions

Mehtap Bayraktar

Last reported at 2014-Nov-26 20:22 UTC. Time now 2014-Nov-28 15:37 UTC.
Position N 43°37' E 008°35'.

Length 114 m; draft 7.5 m.

Type: Ship (hazmat cat A). MMSI: 271000578.

Date/timePositionNaut miles runAvg speedWind from/ knotsBaromVisibWave heightAir tempDewpointWater temp
2014-Nov-26 20:22N 43°37' E 008°35'1112.8
2014-Nov-26 19:33N 43°47' E 008°40'1313.0
2014-Nov-26 18:33N 43°59' E 008°46'1312.8
2014-Nov-26 17:33N 44°11' E 008°52'1212.3
2014-Nov-26 16:33N 44°23' E 008°57'3 3.1
2014-Nov-26 15:33N 44°24' E 008°53'0 0.0
2014-Nov-26 14:24N 44°24' E 008°53'0 0.0
2014-Nov-26 11:34N 44°24' E 008°53'0 0.0
2014-Nov-26 10:28N 44°24' E 008°53'0 0.0
2014-Nov-26 09:34N 44°24' E 008°53'0 0.0
2014-Nov-26 08:31N 44°24' E 008°53'0 0.0
2014-Nov-26 07:33N 44°24' E 008°53'0 0.0
2014-Nov-26 06:25N 44°24' E 008°53'0 0.0
2014-Nov-26 05:17N 44°24' E 008°53'0 0.5
2014-Nov-26 04:32N 44°24' E 008°53'6 5.9
2014-Nov-26 03:34N 44°21' E 009°00'0 0.1
2014-Nov-26 02:33N 44°22' E 009°00'0 0.1
2014-Nov-26 01:33N 44°21' E 009°00'0 0.0
2014-Nov-26 00:33N 44°22' E 009°00'0 0.0
2014-Nov-25 23:33N 44°21' E 009°00'0 0.1
2014-Nov-25 22:33N 44°21' E 009°00'0 0.1
2014-Nov-25 21:33N 44°21' E 009°00'0 0.0
2014-Nov-25 20:33N 44°21' E 009°00'4 4.1
2014-Nov-25 19:33N 44°18' E 008°57'1312.5
2014-Nov-25 18:33N 44°08' E 008°46'1312.6
2014-Nov-25 17:33N 43°59' E 008°35'5112.2
2014-Nov-25 13:25N 43°26' E 007°41'3512.3
2014-Nov-25 10:33N 43°04' E 007°03'1212.4
2014-Nov-25 09:33N 42°57' E 006°50'1211.8
2014-Nov-25 08:33N 42°50' E 006°37'1212.1
2014-Nov-25 07:33N 42°43' E 006°23'1312.3
2014-Nov-25 06:32N 42°38' E 006°07'1111.5
2014-Nov-25 05:33N 42°34' E 005°53'7611.9
2014-Nov-24 23:11N 42°02' E 004°21'1111.9
2014-Nov-24 22:15N 41°57' E 004°07'2512.5
2014-Nov-24 20:13N 41°45' E 003°37'1412.1
2014-Nov-24 19:04N 41°38' E 003°21'711.9
2014-Nov-24 18:27N 41°35' E 003°12'3411.4
2014-Nov-24 15:26N 41°18' E 002°32'1010.2
2014-Nov-24 14:28N 41°15' E 002°20'9 8.7
2014-Nov-24 13:26N 41°21' E 002°10'0 0.1
2014-Nov-24 11:25N 41°21' E 002°10'0 0.0
2014-Nov-24 10:31N 41°21' E 002°10'0 0.0
2014-Nov-24 04:13N 41°21' E 002°10'0 0.0
2014-Nov-24 03:13N 41°21' E 002°10'0 0.0
2014-Nov-24 02:19N 41°21' E 002°10'0 0.0
2014-Nov-24 01:31N 41°21' E 002°10'0 0.0
2014-Nov-24 00:22N 41°21' E 002°10'0 0.0
2014-Nov-23 23:28N 41°21' E 002°10'0 0.0
2014-Nov-23 22:13N 41°21' E 002°10'0 0.4
2014-Nov-23 21:34N 41°21' E 002°10'1 0.9
2014-Nov-23 20:33N 41°20' E 002°11'0 0.0
2014-Nov-23 18:26N 41°20' E 002°11'0 0.0
2014-Nov-23 17:20N 41°20' E 002°11'0 0.0
2014-Nov-23 16:26N 41°20' E 002°11'0 0.0
2014-Nov-23 15:29N 41°20' E 002°11'0 0.0
2014-Nov-23 14:32N 41°20' E 002°11'0 0.0
2014-Nov-23 13:32N 41°20' E 002°11'0 0.0
2014-Nov-23 11:32N 41°20' E 002°11'0 0.0
2014-Nov-23 08:26N 41°20' E 002°11'0 0.0
2014-Nov-23 07:14N 41°20' E 002°11'0 0.0
2014-Nov-23 05:20N 41°20' E 002°11'0 0.0
2014-Nov-23 04:32N 41°20' E 002°11'0 0.0
2014-Nov-23 03:26N 41°20' E 002°11'0 0.0
2014-Nov-23 02:26N 41°20' E 002°11'0 0.0
2014-Nov-23 01:32N 41°20' E 002°11'0 0.0
2014-Nov-22 22:32N 41°20' E 002°11'0 0.0
2014-Nov-22 19:32N 41°20' E 002°11'0 0.0
2014-Nov-22 18:26N 41°20' E 002°11'0 0.0
2014-Nov-22 16:32N 41°20' E 002°11'0 0.1
2014-Nov-22 15:32N 41°20' E 002°11'0 0.0
2014-Nov-22 14:14N 41°20' E 002°11'0 0.0
2014-Nov-22 13:26N 41°20' E 002°11'0 0.0
2014-Nov-21 20:14N 41°20' E 002°11'0 0.0
2014-Nov-21 18:32N 41°20' E 002°11'0 0.1
2014-Nov-21 16:32N 41°20' E 002°12'10 9.6
2014-Nov-21 15:32N 41°11' E 002°10'1212.2
2014-Nov-21 14:33N 40°59' E 002°09'1211.9
2014-Nov-21 13:33N 40°47' E 002°07'1211.6
2014-Nov-21 12:33N 40°35' E 002°05'1211.9
2014-Nov-21 11:33N 40°24' E 002°04'1212.1
2014-Nov-21 10:33N 40°11' E 002°02'1212.3
2014-Nov-21 09:33N 39°59' E 002°01'1412.6
2014-Nov-21 08:25N 39°45' E 001°59'1112.7
2014-Nov-21 07:33N 39°34' E 001°57'1212.2
2014-Nov-21 06:33N 39°22' E 001°59'1212.4
2014-Nov-21 05:33N 39°10' E 002°04'1212.2
2014-Nov-21 04:33N 38°59' E 002°09'1212.3
2014-Nov-21 03:33N 38°47' E 002°14'1212.3
2014-Nov-21 02:33N 38°35' E 002°19'1212.0
2014-Nov-21 01:33N 38°24' E 002°24'1312.2
2014-Nov-21 00:28N 38°11' E 002°29'1112.3
2014-Nov-20 23:33N 38°01' E 002°34'1212.3
2014-Nov-20 22:33N 37°49' E 002°40'1312.4
2014-Nov-20 21:33N 37°37' E 002°45'1512.6
2014-Nov-20 20:19N 37°23' E 002°52'1012.8
2014-Nov-20 19:33N 37°14' E 002°56'  
2014-Nov-17 20:33N 41°45' E 004°54'1312.2
2014-Nov-17 19:30N 41°58' E 004°56'1312.5
2014-Nov-17 18:29N 42°10' E 004°59'1212.4
2014-Nov-17 17:30N 42°23' E 005°01'1212.7
2014-Nov-17 16:30N 42°35' E 005°02'1212.1
2014-Nov-17 15:33N 42°46' E 005°04'1312.4
2014-Nov-17 14:29N 42°60' E 005°06'1212.8
2014-Nov-17 13:33N 43°11' E 005°08'1111.1
2014-Nov-17 12:33N 43°20' E 005°17'3 2.9
2014-Nov-17 11:31N 43°19' E 005°21'0 0.0
2014-Nov-17 10:31N 43°19' E 005°21'0 0.0
2014-Nov-17 09:31N 43°19' E 005°21'0 0.0
2014-Nov-17 08:31N 43°19' E 005°21'0 0.0
2014-Nov-17 07:31N 43°19' E 005°21'0 0.0
2014-Nov-17 06:34N 43°19' E 005°21'0 0.0
2014-Nov-17 05:31N 43°19' E 005°21'0 0.0
2014-Nov-17 04:31N 43°19' E 005°21'0 0.0
2014-Nov-17 03:31N 43°19' E 005°21'0 0.0
2014-Nov-17 02:31N 43°19' E 005°21'0 0.0
2014-Nov-17 01:31N 43°19' E 005°21'0 0.0
2014-Nov-17 00:31N 43°19' E 005°21'0 0.0
2014-Nov-16 23:28N 43°19' E 005°21'0 0.0
2014-Nov-16 22:16N 43°19' E 005°21'0 0.0
2014-Nov-16 21:28N 43°19' E 005°21'0 0.0
2014-Nov-16 20:31N 43°19' E 005°21'  
Track history (hours):
 
Tides and Currents Weather Stations Pressure Air Temp Water Temp Dewpoint Dewpoint Depression Visibility Wind Speed Wind Dir Waves Ship Positions

Mehtap Bayraktar

Last reported at 2014-Nov-26 20:22 UTC. Time now 2014-Nov-28 15:37 UTC.
Position N 43°37' E 008°35'.

Length 114 m; draft 7.5 m.

Type: Ship (hazmat cat A). MMSI: 271000578.

Date/timePositionNaut miles runAvg speedWind from/ knotsBaromVisibWave heightAir tempDewpointWater temp
2014-Nov-26 20:22N 43°37' E 008°35'1112.8
2014-Nov-26 19:33N 43°47' E 008°40'1313.0
2014-Nov-26 18:33N 43°59' E 008°46'1312.8
2014-Nov-26 17:33N 44°11' E 008°52'1212.3
2014-Nov-26 16:33N 44°23' E 008°57'3 3.1
2014-Nov-26 15:33N 44°24' E 008°53'0 0.0
2014-Nov-26 14:24N 44°24' E 008°53'0 0.0
2014-Nov-26 11:34N 44°24' E 008°53'0 0.0
2014-Nov-26 10:28N 44°24' E 008°53'0 0.0
2014-Nov-26 09:34N 44°24' E 008°53'0 0.0
2014-Nov-26 08:31N 44°24' E 008°53'0 0.0
2014-Nov-26 07:33N 44°24' E 008°53'0 0.0
2014-Nov-26 06:25N 44°24' E 008°53'0 0.0
2014-Nov-26 05:17N 44°24' E 008°53'0 0.5
2014-Nov-26 04:32N 44°24' E 008°53'6 5.9
2014-Nov-26 03:34N 44°21' E 009°00'0 0.1
2014-Nov-26 02:33N 44°22' E 009°00'0 0.1
2014-Nov-26 01:33N 44°21' E 009°00'0 0.0
2014-Nov-26 00:33N 44°22' E 009°00'0 0.0
2014-Nov-25 23:33N 44°21' E 009°00'0 0.1
2014-Nov-25 22:33N 44°21' E 009°00'0 0.1
2014-Nov-25 21:33N 44°21' E 009°00'0 0.0
2014-Nov-25 20:33N 44°21' E 009°00'4 4.1
2014-Nov-25 19:33N 44°18' E 008°57'1312.5
2014-Nov-25 18:33N 44°08' E 008°46'1312.6
2014-Nov-25 17:33N 43°59' E 008°35'5112.2
2014-Nov-25 13:25N 43°26' E 007°41'3512.3
2014-Nov-25 10:33N 43°04' E 007°03'1212.4
2014-Nov-25 09:33N 42°57' E 006°50'1211.8
2014-Nov-25 08:33N 42°50' E 006°37'1212.1
2014-Nov-25 07:33N 42°43' E 006°23'1312.3
2014-Nov-25 06:32N 42°38' E 006°07'1111.5
2014-Nov-25 05:33N 42°34' E 005°53'7611.9
2014-Nov-24 23:11N 42°02' E 004°21'1111.9
2014-Nov-24 22:15N 41°57' E 004°07'2512.5
2014-Nov-24 20:13N 41°45' E 003°37'1412.1
2014-Nov-24 19:04N 41°38' E 003°21'711.9
2014-Nov-24 18:27N 41°35' E 003°12'3411.4
2014-Nov-24 15:26N 41°18' E 002°32'1010.2
2014-Nov-24 14:28N 41°15' E 002°20'9 8.7
2014-Nov-24 13:26N 41°21' E 002°10'0 0.1
2014-Nov-24 11:25N 41°21' E 002°10'0 0.0
2014-Nov-24 10:31N 41°21' E 002°10'0 0.0
2014-Nov-24 04:13N 41°21' E 002°10'0 0.0
2014-Nov-24 03:13N 41°21' E 002°10'0 0.0
2014-Nov-24 02:19N 41°21' E 002°10'0 0.0
2014-Nov-24 01:31N 41°21' E 002°10'0 0.0
2014-Nov-24 00:22N 41°21' E 002°10'0 0.0
2014-Nov-23 23:28N 41°21' E 002°10'0 0.0
2014-Nov-23 22:13N 41°21' E 002°10'0 0.4
2014-Nov-23 21:34N 41°21' E 002°10'1 0.9
2014-Nov-23 20:33N 41°20' E 002°11'0 0.0
2014-Nov-23 18:26N 41°20' E 002°11'0 0.0
2014-Nov-23 17:20N 41°20' E 002°11'0 0.0
2014-Nov-23 16:26N 41°20' E 002°11'0 0.0
2014-Nov-23 15:29N 41°20' E 002°11'0 0.0
2014-Nov-23 14:32N 41°20' E 002°11'0 0.0
2014-Nov-23 13:32N 41°20' E 002°11'0 0.0
2014-Nov-23 11:32N 41°20' E 002°11'0 0.0
2014-Nov-23 08:26N 41°20' E 002°11'0 0.0
2014-Nov-23 07:14N 41°20' E 002°11'0 0.0
2014-Nov-23 05:20N 41°20' E 002°11'0 0.0
2014-Nov-23 04:32N 41°20' E 002°11'0 0.0
2014-Nov-23 03:26N 41°20' E 002°11'0 0.0
2014-Nov-23 02:26N 41°20' E 002°11'0 0.0
2014-Nov-23 01:32N 41°20' E 002°11'0 0.0
2014-Nov-22 22:32N 41°20' E 002°11'0 0.0
2014-Nov-22 19:32N 41°20' E 002°11'0 0.0
2014-Nov-22 18:26N 41°20' E 002°11'0 0.0
2014-Nov-22 16:32N 41°20' E 002°11'0 0.1
2014-Nov-22 15:32N 41°20' E 002°11'0 0.0
2014-Nov-22 14:14N 41°20' E 002°11'0 0.0
2014-Nov-22 13:26N 41°20' E 002°11'0 0.0
2014-Nov-21 20:14N 41°20' E 002°11'0 0.0
2014-Nov-21 18:32N 41°20' E 002°11'0 0.1
2014-Nov-21 16:32N 41°20' E 002°12'10 9.6
2014-Nov-21 15:32N 41°11' E 002°10'1212.2
2014-Nov-21 14:33N 40°59' E 002°09'1211.9
2014-Nov-21 13:33N 40°47' E 002°07'1211.6
2014-Nov-21 12:33N 40°35' E 002°05'1211.9
2014-Nov-21 11:33N 40°24' E 002°04'1212.1
2014-Nov-21 10:33N 40°11' E 002°02'1212.3
2014-Nov-21 09:33N 39°59' E 002°01'1412.6
2014-Nov-21 08:25N 39°45' E 001°59'1112.7
2014-Nov-21 07:33N 39°34' E 001°57'1212.2
2014-Nov-21 06:33N 39°22' E 001°59'1212.4
2014-Nov-21 05:33N 39°10' E 002°04'1212.2
2014-Nov-21 04:33N 38°59' E 002°09'1212.3
2014-Nov-21 03:33N 38°47' E 002°14'1212.3
2014-Nov-21 02:33N 38°35' E 002°19'1212.0
2014-Nov-21 01:33N 38°24' E 002°24'1312.2
2014-Nov-21 00:28N 38°11' E 002°29'1112.3
2014-Nov-20 23:33N 38°01' E 002°34'1212.3
2014-Nov-20 22:33N 37°49' E 002°40'1312.4
2014-Nov-20 21:33N 37°37' E 002°45'1512.6
2014-Nov-20 20:19N 37°23' E 002°52'1012.8
2014-Nov-20 19:33N 37°14' E 002°56'  
2014-Nov-17 20:33N 41°45' E 004°54'1312.2
2014-Nov-17 19:30N 41°58' E 004°56'1312.5
2014-Nov-17 18:29N 42°10' E 004°59'1212.4
2014-Nov-17 17:30N 42°23' E 005°01'1212.7
2014-Nov-17 16:30N 42°35' E 005°02'1212.1
2014-Nov-17 15:33N 42°46' E 005°04'1312.4
2014-Nov-17 14:29N 42°60' E 005°06'1212.8
2014-Nov-17 13:33N 43°11' E 005°08'1111.1
2014-Nov-17 12:33N 43°20' E 005°17'3 2.9
2014-Nov-17 11:31N 43°19' E 005°21'0 0.0
2014-Nov-17 10:31N 43°19' E 005°21'0 0.0
2014-Nov-17 09:31N 43°19' E 005°21'0 0.0
2014-Nov-17 08:31N 43°19' E 005°21'0 0.0
2014-Nov-17 07:31N 43°19' E 005°21'0 0.0
2014-Nov-17 06:34N 43°19' E 005°21'0 0.0
2014-Nov-17 05:31N 43°19' E 005°21'0 0.0
2014-Nov-17 04:31N 43°19' E 005°21'0 0.0
2014-Nov-17 03:31N 43°19' E 005°21'0 0.0
2014-Nov-17 02:31N 43°19' E 005°21'0 0.0
2014-Nov-17 01:31N 43°19' E 005°21'0 0.0
2014-Nov-17 00:31N 43°19' E 005°21'0 0.0
2014-Nov-16 23:28N 43°19' E 005°21'0 0.0
2014-Nov-16 22:16N 43°19' E 005°21'0 0.0
2014-Nov-16 21:28N 43°19' E 005°21'0 0.0
2014-Nov-16 20:31N 43°19' E 005°21'  

Dump ship's entire track history